Beaufort MCAS, SC

4:41 PM EST on December 16, 2017 (GMT -0500)
Beaufort Marine Corps Air Station

Weather History for KNBC - December, 2013

Change the Weather History Date:

Friday, December 27, 2013

  Actual Average Record
Temperature  
Mean Temperature 51 °F -  
Max Temperature 59 °F 58 °F 79 °F (1949)
Min Temperature 42 °F 39 °F 25 °F (1983)
Degree Days  
Heating Degree Days 14    
Growing Degree Days 1 (Base 50)    
Moisture  
Dew Point 34 °F    
Average Humidity 58    
Maximum Humidity 80    
Minimum Humidity 35    
Precipitation  
Precipitation 0.00 in - - ()
Sea Level Pressure  
Sea Level Pressure 30.37 in    
Wind  
Wind Speed 8 mph (NE)    
Max Wind Speed 12 mph    
Max Gust Speed -    
Visibility 10 miles    
Events      
Averages and records for this station are not official NWS values.
T = Trace of Precipitation, MM = Missing Value Source: NWS Daily Summary

Daily Weather History Graph

Daily Weather History Graph

Search for Another Location

Airport or City:

Trip Planner

Search our weather history database for the weather conditions in past years. The results will help you decide how hot, cold, wet, or windy it might be!

Date:

Astronomy

Dec. 27, 2013 Rise Set
Actual Time 7:23 AM EST 5:25 PM EST
Civil Twilight 6:56 AM EST 5:52 PM EST
Nautical Twilight 6:25 AM EST 6:22 PM EST
Astronomical Twilight 5:55 AM EST 6:52 PM EST
Moon 2:04 AM EST (12/27) 1:25 PM EST (12/27)
Length of Visible Light 10h 56m
Length of Day
10h 01m
Waning Crescent, 28% of the Moon is Illuminated
Dec 27
Waning Crescent
Jan 1
New
Jan 7
First Quarter
Jan 15
Full
Jan 24
Last Quarter

Hourly Weather History & Observations

Time (EST) Temp. Windchill Dew Point Humidity Pressure Visibility Wind Dir Wind Speed Gust Speed Precip Events Conditions
12:56 AM 46.9 °F - 41.0 °F 80% 30.32 in 10.0 mi NE 6.9 mph - N/A   Mostly Cloudy
1:56 AM 46.9 °F - 39.9 °F 77% 30.32 in 10.0 mi NE 6.9 mph - N/A   Overcast
2:56 AM 46.9 °F - 37.9 °F 71% 30.34 in 10.0 mi NNE 8.1 mph - N/A   Mostly Cloudy
3:56 AM 46.0 °F 41.0 °F 37.0 °F 71% 30.32 in 10.0 mi NNE 10.4 mph - N/A   Clear
4:56 AM 45.0 °F 40.6 °F 37.0 °F 74% 30.33 in 10.0 mi NE 8.1 mph - N/A   Clear
5:56 AM 44.1 °F 39.0 °F 36.0 °F 73% 30.34 in 10.0 mi NE 9.2 mph - N/A   Clear
6:56 AM 43.0 °F 37.7 °F 35.1 °F 74% 30.36 in 10.0 mi NE 9.2 mph - N/A   Mostly Cloudy
7:56 AM 43.0 °F 37.7 °F 34.0 °F 71% 30.38 in 10.0 mi NNE 9.2 mph - N/A   Mostly Cloudy
8:56 AM 46.9 °F - 35.1 °F 63% 30.40 in 10.0 mi NE 11.5 mph - N/A   Mostly Cloudy
9:56 AM 51.1 °F - 32.0 °F 48% 30.42 in 10.0 mi ENE 9.2 mph - N/A   Mostly Cloudy
10:56 AM 54.0 °F - 30.0 °F 40% 30.42 in 10.0 mi NE 10.4 mph - N/A   Mostly Cloudy
11:56 AM 57.0 °F - 30.0 °F 36% 30.40 in 10.0 mi NE 8.1 mph - N/A   Mostly Cloudy
12:56 PM 57.9 °F - 30.9 °F 36% 30.37 in 10.0 mi NNE 10.4 mph - N/A   Mostly Cloudy
1:56 PM 59.0 °F - 30.9 °F 35% 30.36 in 10.0 mi NNE 8.1 mph - N/A   Mostly Cloudy
2:56 PM 59.0 °F - 30.9 °F 35% 30.35 in 10.0 mi North 8.1 mph - N/A   Mostly Cloudy
3:56 PM 57.0 °F - 30.9 °F 37% 30.35 in 10.0 mi NNE 9.2 mph - N/A   Mostly Cloudy
4:56 PM 54.0 °F - 30.9 °F 41% 30.37 in 10.0 mi NNE 9.2 mph - N/A   Mostly Cloudy
5:56 PM 52.0 °F - 33.1 °F 49% 30.38 in 10.0 mi NE 5.8 mph - N/A   Mostly Cloudy
6:56 PM 51.1 °F - 34.0 °F 52% 30.40 in 10.0 mi NNE 4.6 mph - N/A   Clear
7:56 PM 48.0 °F - 34.0 °F 58% 30.40 in 10.0 mi NNE 8.1 mph - N/A   Clear
8:56 PM 45.0 °F 42.6 °F 34.0 °F 65% 30.40 in 10.0 mi NE 4.6 mph - N/A   Clear
9:56 PM 45.0 °F 41.2 °F 34.0 °F 65% 30.40 in 10.0 mi NE 6.9 mph - N/A   Clear
10:56 PM 46.0 °F 42.5 °F 35.1 °F 66% 30.40 in 10.0 mi NNE 6.9 mph - N/A   Clear
11:56 PM 42.1 °F 39.2 °F 33.1 °F 70% 30.40 in 10.0 mi NNE 4.6 mph - N/A   Clear